Погода в Какможе

Россия / Удмуртская Республика     56°51′07″N   51°51′15″E
темп.,
°C
ветер,
м/с
пор.,
м/с
влажн.,
%
обл.,
%
осадки,
мм/ч
давл.,
гПа
погр.,
м
26 января, вт
вт2601:00−3ююз3994100 0.0 1027518
04:00−4ююз4893100 0.1 1027486
07:00−6ю3895100 0.1 1026271
10:00−4ю4994100 0.1 1026424
13:00−2ююз5993100 0.1 1025552
16:00−2ююз5891100 0.1 1025621
19:00−3ю4994100 0.0 1024408
22:00−10ю369698 0.1 1025120
27 января, ср
ср2701:00−8ю3894100 0.0 1025272
04:00−8ю4995100 0.1 1024250
07:00−4ююз41193100 0.1 1024383
10:00−3ю51093100 0.1 1024494
13:00−1ю61191100 0.0 1023637
16:00−1ю61291100 0.1 1022591
19:00−3ю61292100 0.1 1021628
22:00−4ююз61391100 0.1 1020623
28 января, чт
чт2801:00−5ююз51391100 0.0 1020610
04:00−5ююз61490100 0.1 1019588
07:00−5ююз51490100 0.0 1018574
10:00−4ююз61289100 0.1 1019525
13:00−4ююз51091100 0.1 1019471
16:00−4ююз4890100 0.1 1019425
19:00−7ю3793100 0.0 1020206
22:00−8ю3594100 0.0 1019124
29 января, пт
пт2901:00−9ююв3795100 0.0 1020167
04:00−11ююв349495 0.0 101958
07:00−11юв349395 0.0 101885
10:00−9вюв489297 0.0 1017210
13:00−6вюв4890100 0.0 1015290
16:00−5вюв5989100 0.0 1012387
19:00−8вюв41093100 0.0 1010217
22:00−5юв41093100 0.2 1009591
30 января, сб
сб3001:00−5ююв51093100 0.6 1009523
04:00−6ююв4109499 0.6 1008356
07:00−5ю5109488 0.1 1008501
10:00−2ююв5119294 0.1 1008642
13:00−1ююв6129083 0.0 1007648
16:00−1ю8149691 0.5 1006971
19:00−1ю71493100 0.6 1005937
22:00−1ююз7139095 0.8 1006815